Hourly Data Report for June 21, 2021

BORDEN AWOS
ONTARIO
Current Station Operator: DND

44°16'20.000" N
79°54'42.000" W
222.50 m
611B002
71534
YBN

Download Data

Hourly Data (June 2021)
Hourly Data Report for June 21, 2021
TIME
LST
Temp Definition
°C
Dew Point Definition
°C
Rel Hum Definition
%
Precip. Amount Definition
mm

Wind Dir Definition
10's deg

Wind Spd Definition
km/h
Visibility Definition
km
Stn Press Definition
kPa
Hmdx Definition


Wind Chill Definition


Weather Definition


00:00 17.5 11.8 69   22 4 14.5 97.67     LegendNANA
01:00 17.0 11.8 71   17 9 14.5 97.55     LegendNANA
02:00 19.0 13.6 71   16 17 14.5 97.41     LegendNANA
03:00 19.0 14.7 76   15 11 14.5 97.28     LegendNANA
04:00 19.4 16.3 82   16 9 14.5 97.25     Rain
05:00 20.1 16.5 80   17 17 14.5 97.17 25   LegendNANA
06:00 21.1 16.4 75   18 15 14.5 97.11 26   LegendNANA
07:00 20.3 17.1 82   16 19 11.3 96.96 26   Moderate Rain
08:00 21.4 18.7 85   20 15 14.5 97.08 28   LegendNANA
09:00 22.4 17.8 75   21 26 14.5 97.02 28   LegendNANA
10:00 24.7 17.7 65   24 28 14.5 96.98 30   LegendNANA
11:00 27.0 17.5 56   25 24 14.5 97.01 33   LegendNANA
12:00 25.8 16.3 56   23 33 14.5 97.08 31   LegendNANA
13:00 25.8 16.4 56   24 33 14.5 97.09 31   LegendNANA
14:00 27.4 16.3 51   26 22 14.5 97.05 32   LegendNANA
15:00 23.4 15.3 60   28 31 14.5 97.27 28   LegendNANA
16:00 21.4 12.1 55   28 30 14.5 97.37     LegendNANA
17:00 19.1 11.0 59   31 30 14.5 97.48     LegendNANA
18:00 18.4 10.8 61   28 24 14.5 97.61     LegendNANA
19:00 15.2 9.2 67   28 20 14.5 97.76     LegendNANA
20:00 12.3 7.0 70   29 28 14.5 97.79     LegendNANA
21:00 11.1 6.5 73   29 19 14.5 97.98     LegendNANA
22:00 10.8 6.7 76   27 13 14.5 98.05     LegendNANA
23:00 10.8 6.9 77   29 15 14.5 98.09     LegendNANA

Notes on Data Quality.

Legend

  • E = Estimated
  • M = Missing
  • NA = Not Available*
  • [empty] = Indicates an unobserved value
Date modified: